P/2020 V1 ( LONEOS-Hill )

Japanese version
Home page
Updated on November 24, 2020

---------------------------------------------------------------------

* Profile

Recovery Date November 16, 2020
Magnitude 18.7 mag
Recoverer D. Rankin (Mt. Lemmon Survey)

* Orbital Elements

Epoch 2021 Jan. 26.0 TT = JDT 2459240.5                                         
T 2021 Jan. 28.17150 TT                                 Rudenko                 
q   1.7540419            (2000.0)            P               Q                  
n   0.06622123     Peri.   15.13680     -0.92552029     -0.33616105             
a   6.0506854      Node   143.67110     +0.30964298     -0.93684958             
e   0.7101086      Incl.   17.11857     +0.21802162     -0.09648115             
P  14.9                                                                         
From 570 observations 2005 Dec. 4-2020 Nov. 17, mean residual 0".5.             

* Finding Charts

* Magnitudes Graph

        m1 = 9.0 + 5 log d + 27.0 log r(t - 10)

---------------------------------------------------------------------

The orbital elements are published on M.P.E.C. 2020-W25.
The charts are made with StellaNavigator Ver.10 (AstroArts).
The magnitudes graphs are made with Comet for Windows.

---------------------------------------------------------------------

Copyright(C) Seiichi Yoshida (comet@aerith.net). All rights reserved.